DELTA 1 DEB, 18463

Orbit data source: Space-Track

DELTA 1 DEB, 18463 is space debris in SSO originally from a launch on Thu, 29 Jul 1976 UTC launched from the Air Force Western Test Range (AFWTR). Debris objects in space refer to the collection of defunct objects orbiting the Earth. Examples of debris include non-operational satellites, rocket bodies, and fragments generated from explosions, collisions, or faulty payload assembly.

Loading next visibility...
Identifier
18463, 1976-077FA
Orbit
SSO
Country
Flag of USUS
Related business
Manufacturer
Unknown
Mission
Spacecraft
Bus & Motor
Unknown
Mass
Unknown
Launch date (UTC)
1976-07-29 (50 years ago)
Launch vehicle
Unknown
Launch site
Air Force Western Test Range (AFWTR)
Object type
Payload
Rocket body
Debris
Shape & HBR
Unknown shape, 0.1 m
Radar Cross Section
Small (<0.1 m²)

Expand to show TLE details & history
Last TLE update: 2 days ago

TLE from 2 days ago
0 DELTA 1 DEB
1 18463U 76077FA  26119.88814021 -.00000050  00000-0 -33926-4 0  9994
2 18463 102.5858  95.0240 0094132 353.5647  35.7293 12.23623770222496
Epoch: 2026-04-29T21:18Z
TLE epoch observation values (Epoch: 2026-04-29T21:18:55.314Z)
Latitude
29.18688°
Longitude
-89.67805°
Altitude
1,519.52 km
Speed
7.135 km/s
True Right ascension
05h 51m 34s
True Declination
29° 03' 17"
Sunlit
Object was in daylight at epoch
Visualization orbit readout
Latitude
Unknown
Longitude
Unknown
Altitude
Unknown
Speed
Unknown
Apparent Right ascension
Unknown
Apparent Declination
Unknown
Sunlit
N/A
Visualization observer readout
Local Sidereal Time
18:11:34
Azimuth
Unknown
Elevation
Unknown
Doppler factor
Unknown
Orbital elements
Apogee altitude
1,649.287 km
Perigee altitude
1,499.569 km
Semi-major axis
7,952.565 km
Eccentricity
0.00941
Inclination
102.5858°
RAAN
95.024°
Arg. of periapsis
353.5647°
True anomaly
36.36526°
Mean anomaly
35.7293°
Eccentric anomaly
36.04667°
Mean motion
3.06043 °/min
Orbital period
117.63 mins
BSTAR
-0.000033926
Loading maneuver chart data...
Computing Atmospheric mass density...
Loading historical data...
Loading historical data...
Loading historical data...
Loading historical data...
Loading historical data...
Loading historical data...
Loading historical data...

Documentation

Showing up to 5 results
|